NIMIQ 2

Last updated on Thu Oct 30 2025 00:02:47 GMT+0000 (Coordinated Universal Time)

1 27632U 02062A 25302.44162477 -.00000055 00000+0 00000+0 0 9996 2 27632 8.9090 59.2732 0005960 161.4245 227.1655 1.00272000 41879
UTC large
Height (km)
Speed (km/s)
/
Latitude / Longitude
Inclination (degrees)
Orbital Period (minutes)
Azimuth
Elevation
Range (km)
Doppler Factor

Next 0 passes for location: London (51.5072 / 0.1276)

Sorry there are no passes over London.